STARLINK-32872, 63019

Orbit data source: Space-Track

STARLINK-32872, 63019 is a payload satellite owned by SpaceX/Seattle (US) in LEO that was launched on Sat, 15 Feb 2025 UTC via an FALCON 9 launch vehicle from the Air Force Eastern Test Range (AFETR). Payload-class satellites include a variety of spacecraft equipped with specific instruments for various scientific and technological missions. These include communications satellites like Starlink; space stations such as the ISS; scientific satellites like the Hubble; Earth observation satellites from companies like Planet Labs, Umbra, and HawkEye 360; GPS; miniature CubeSats for education and research; and military/defense satellites.

Loading next visibility...
Identifier
63019, 2025-032Q
Orbit
LEO
Country
Flag of USUS
Related business
Manufacturer
SpaceX/Seattle
Mission
Operational Commercial Communications
Bus & Motor
STARLINK V2M, Unknown motor
Mass
730 kg wet, ~700 kg dry
Launch date (UTC)
2025-02-15 (8 months ago)
Launch vehicle
FALCON 9
Launch site
Air Force Eastern Test Range (AFETR)
Object type
Payload
Rocket body
Debris
Shape & HBR
Box + 2 Pan, 17.7 m
Radar Cross Section
33.884 m², Large (>1 m²)

Expand to show TLE details & history
Last TLE update: 16 hours ago

TLE from 16 hours ago
0 STARLINK-32872
1 63019U 25032Q   25301.52942499  .00038026  00000-0  13828-2 0  9999
2 63019  43.0009   2.7871 0001445 268.8617  91.2070 15.27613593 40403
Epoch: 2025-10-28T12:42Z
TLE epoch observation values (Epoch: 2025-10-28T12:42:22.319Z)
Latitude
0.00006°
Longitude
135.07856°
Altitude
482.745 km
Speed
7.626 km/s
True Right ascension
00h 11m 08s
True Declination
0° 00' 00"
Sunlit
Object was in full shadow at epoch
Visualization orbit readout
Latitude
Unknown
Longitude
Unknown
Altitude
Unknown
Speed
Unknown
Apparent Right ascension
Unknown
Apparent Declination
Unknown
Sunlit
N/A
Visualization observer readout
Local Sidereal Time
00:04:03
Azimuth
Unknown
Elevation
Unknown
Doppler factor
Unknown
Orbital elements
Apogee altitude
485.885 km
Perigee altitude
483.902 km
Semi-major axis
6,863.031 km
Eccentricity
0.00014
Inclination
43.0009°
RAAN
2.7871°
Arg. of periapsis
268.8617°
True anomaly
91.22355°
Mean anomaly
91.207°
Eccentric anomaly
91.21528°
Mean motion
3.81741 °/min
Orbital period
94.3 mins
BSTAR
0.0013828
Loading maneuver chart data...
Computing Atmospheric mass density...
Loading historical data...
Loading historical data...
Loading historical data...
Loading historical data...
Loading historical data...
Loading historical data...
Loading historical data...

Documentation

Showing up to 5 results
|